Location: Unspecified
(44.0704°N, 88.6889°W)
Time: 07:11:14
(UTC+02:00)

Altair - Pass Details

Date: 20 June 2019
Orbit: 1501 x 1683 km, 47.2° (Epoch: 21 July)

Event Time Altitude Azimuth Distance (km) Brightness Sun altitude
Rises 01:33:45 0° 173° (S) 4,669 9.8 19.9°
Reaches altitude 10° 01:38:46 10° 150° (SSE) 3,724 9.2 19.1°
Maximum altitude 01:43:05 14° 122° (ESE) 3,440 8.9 18.3°
Drops below altitude 10° 01:47:29 10° 94° (E) 3,799 9.0 17.6°
Sets 01:52:39 0° 72° (ENE) 4,830 9.6 16.7°
